Location: Koslow
(50.3020°N, 18.5663°E)
Time: 20:29:35
(UTC+00:00)

Cosmos 489 Rocket - Visible Passes

Search period start: 29 September 2020 00:00
Search period end: 09 October 2020 00:00
Orbit: 953 x 983 km, 74.0° (Epoch: 29 September)

Date Brightness Start Highest point End Pass type
(mag) Time Alt. Az. Time Alt. Az. Time Alt. Az.
29 Sep 5.6 03:17:07 10° S 03:23:02 45° ESE 03:28:57 10° NNE visible
30 Sep 7.1 01:57:39 10° ESE 02:00:48 14° E 02:03:57 10° ENE visible
30 Sep 4.7 03:39:54 10° SSW 03:46:10 76° ESE 03:52:25 10° NNE visible
01 Oct 6.5 02:18:37 10° SSE 02:23:34 25° E 02:28:30 10° NE visible
01 Oct 4.5 04:03:13 10° SSW 04:09:28 69° WNW 04:15:43 10° NNE visible
02 Oct 5.6 02:40:40 10° S 02:46:30 42° ESE 02:52:19 10° NE visible
03 Oct 7.1 01:21:37 10° ESE 01:24:19 13° E 01:27:02 10° ENE visible
03 Oct 4.7 03:03:23 10° SSW 03:09:36 70° ESE 03:15:50 10° NNE visible
04 Oct 6.5 01:42:18 10° SE 01:47:04 23° E 01:51:49 10° NE visible
04 Oct 4.4 03:26:37 10° SSW 03:32:53 73° WNW 03:39:09 10° NNE visible
05 Oct 5.7 02:04:47 12° SSE 02:09:58 39° ESE 02:15:42 10° NE visible
05 Oct 4.8 03:50:20 10° SW 03:56:20 46° WNW 04:02:20 10° NNE visible
06 Oct 7.0 00:45:42 10° ESE 00:47:51 12° E 00:50:00 10° ENE visible
06 Oct 4.8 02:28:42 20° S 02:33:03 65° ESE 02:39:14 10° NNE visible
06 Oct 5.3 04:14:32 10° WSW 04:19:59 30° NW 04:25:25 10° N visible
07 Oct 6.5 01:07:55 16° SE 01:10:34 21° E 01:15:06 10° NE visible
07 Oct 4.4 02:52:28 25° SSW 02:56:19 78° WNW 03:02:34 10° NNE visible
08 Oct 5.7 01:31:35 30° SE 01:33:27 36° E 01:39:03 10° NE visible
08 Oct 4.7 03:16:07 24° WSW 03:19:44 49° WNW 03:25:47 10° NNE visible
